EHI
0 0 0 0 0 0 0 0 0 0 0 0 0 0 0 0 0 0 0 0 0 0 0 0 0 0 0 0 0 0 0 0 0 0 0 0 0 0 0 0 0 0 0
0 0 0 0 0 0 0 0 0 0 0 0 0 0 0 0 0 0 0 0 0 0 0 0 0 0 0 0 0 0 0 0 0 0 0 0 0 0 0 0 0 0 0
0 0 0 0 0 0 0 0 0 0 0 0 0 0 0 0 0 0 0 0 0 0 0 0 0 0 0 0 0 0 0 0 0 0 0 0 0 0 0 0 0 0 0
0 0 0 0 0 0 0 0 0 0 0 0 0 0 0 0 0 0 0 0 0 0 0 0 0 0 0 0 0 0 0 0 0 0 0 0 0 0 0 0 0 0 0
0 0 0 0 0 0 0 0 0 0 0 0 0 0 0 0 0 0 0 0 0 0 0 0 0 0 0 0 0 0 0 0 0 0 0 0 0 0 0 0 0 0 0
0 0 0 0 0 0 0 0 0 0 0 0 0 0 0 0 0 0 0 0 0 0 0 0 0 0 0 0 0 0 0 0 0 0 0 0 0 0 0 0 0 0 0
0 0 0 0 0 0 0 0 0 0 0 0 0 0 0 0 0 0 0 0 0 0 0 0 0 0 0 0 0 0 0 0 0 0 0 0 0 0 0 0 0 0 0
0 0 0 0 0 0 0 0 0 0 0 0 0 0 0 0 0 0 0 0 0 0 0 0 0 0 0 0 0 0 0 0 0 0 0 0 0 0 0 0 0 0 0
0 0 0 0 0 0 0 0 0 0 0 0 0 0 0 0 0 0 0 0 0 0 0 0 0 0 0 0 0 0 0 0 0 0 0 0 0 0 0 0 0 0 0
0 0 0 0 0 0 0 0 0 0 0 0 0 0 0 0 0 0 0 0 0 0 0 0 0 0 0 0 0 0 0 0 0 0 0 0 0 0 0 0 0 0 0
0 0 0 0 0 0 0 0 0 0 0 0 0 0 0 0 0 0 0 0 0 0 0 0 0 0 0 0 0 0 0 0 0 0 0 0 0 0 0 0 0 0 0
0 0 0 0 0 0 0 0 0 0 0 0 0 0 0 0 0 0 0 0 0 0 0 0 0 0 0 0 0 0 0 0 0 0 0 0 0 0 0 0 0 0 0
0 0 0 0 0 0 0 0 0 0 0 0 0 0 0 0 0 0 0 0 0 0 0 0 0 0 0 0 0 0 0 0 0 0 0 0 0 0 0 0 0 0 0
0 0 0 0 0 0 0 0 0 0 0 0 0 0 0 0 0 0 0 0 0 0 0 0 0 0 0 0 0 0 0 0 0 0 0 0 0 0 0 0 0 0 0
0 0 0 0 0 0 0 0 0 0 0 0 0 0 0 0 0 0 0 0 0 0 0 0 0 0 0 0 0 0 0 0 0 0 0 0 0 0 0 0 0 0 0
0 0 0 0 0 0 0 0 0 0 0 0 0 0 0 0 0 0 0 0 0 0 0 0 0 0 0 0 0 0 0 0 0 0 0 0 0 0 0 0 0 0 0
0 0 0 0 0 0 0 0 0 0 0 0 0 0 0 0 0 0 0 0 0 0 0 0 0 0 0 0 0 0 0 0 0 0 0 0 0 0 0 0 0 0 0
0 0 0 0 0 0 0 0 0 0 0 0 0 0 0 0 0 0 0 0 0 0 0 0 0 0 0 0 0 0 0 0 0 0 0 0 0 0 0 0 0 0 0
0 0 0 0 0 0 0 0 0 0 0 0 0 0 0 0 0 0 0 0 0 0 0 0 0 0 0 0 0 0 0 0 0 0 0 0 0 0 0 0 0 0 0
0 0 0 0 0 0 0 0 0 0 0 0 0 0 0 0 0 0 0 0 0 0 0 0 0 0 0 0 0 0 0 0 0 0 0 0 0 0 0 0 0 0 0
0 0 0 0 0 0 0 0 0 0 0 0 0 0 0 0 0 0 0 0 0 0 0 0 0 0 0 0 0 0 0 0 0 0 0 0 0 0 0 0 0 0 0
0 0 0 0 0 0 0 0 0 0 0 0 0 0 0 0 0 0 0 0 0 0 0 0 0 0 0 0 0 0 0 0 0 0 0 0 0 0 0 0 0 0 0
0 0 0 0 0 0 0 0 0 0 0 0 0 0 0 0 0 0 0 0 0 0 0 0 0 0 0 0 0 0 0 0 0 0 0 0 0 0 0 0 0 0 0
0 0 0 0 0 0 0 0 0 0 0 0 0 0 0 0 0 0 0 0 0 0 0 0 0 0 0 0 0 0 0 0 0 0 0 0 0 0 0 0 0 0 0
0 0 0 0 0 0 0 0 0 0 0 0 0 0 0 0 0 0 0 0 0 0 0 0 0 0 0 0 0 0 0 0 0 0 0 0 0 0 0 0 0 0 0
0 0 0 0 0 0 0 0 0 0 0 0 0 0 0 0 0 0 0 0 0 0 0 0 0 0 0 0 0 0 0 0 0 0 0 0 0 0 0 0 0 0 0
Wind_Speed
13 13 13 12 12 12 11 10 9 8 7 7 6 6 6 6 5 5 5 5 5 5 5 5 5 4 4 4 4 4 3 3 4 5 4 4 4 4 4 4 5 5 5
12 12 12 12 11 11 10 9 7 6 6 6 5 5 6 6 5 6 6 6 6 5 5 5 5 5 5 4 4 4 4 3 4 6 5 5 5 5 4 5 6 6 5
11 11 11 10 10 9 8 7 6 6 6 5 5 6 6 6 7 6 6 5 5 4 4 4 4 5 5 5 5 5 4 5 4 5 6 4 4 5 5 6 6 5 7
10 11 10 9 8 8 7 6 5 5 5 5 5 6 7 9 9 9 7 5 4 4 3 3 3 4 4 5 5 5 5 6 6 5 5 5 4 5 4 4 5 4 6
9 10 9 8 7 7 6 5 4 4 5 4 5 6 6 7 8 9 8 6 5 4 4 3 3 3 2 3 4 5 6 5 6 6 6 5 5 5 5 4 5 5 6
8 9 8 7 7 6 5 5 4 5 5 5 5 7 8 7 7 10 9 7 6 4 4 4 3 3 3 4 7 8 8 7 6 6 6 6 7 6 5 5 5 5 5
7 7 7 6 6 5 5 5 5 4 4 4 5 6 7 6 7 9 11 7 6 4 3 4 5 6 6 7 9 10 8 9 10 7 7 7 7 6 5 6 6 6 7
6 7 6 6 6 5 5 5 4 3 3 3 4 5 5 5 6 8 13 8 4 3 3 3 4 4 6 7 8 8 7 6 6 5 5 7 7 5 5 6 7 7 7
6 6 6 5 5 5 5 4 3 3 3 3 4 4 4 4 4 8 11 6 4 4 4 3 4 4 5 7 7 8 8 6 8 9 10 11 13 14 9 5 6 5 7
6 5 5 4 5 5 4 3 2 2 3 3 3 3 3 3 2 6 9 6 6 5 4 1 3 3 6 7 6 7 8 7 9 11 9 9 8 9 9 6 5 5 5
5 4 3 3 2 3 3 2 2 2 2 1 1 2 2 3 1 2 5 4 6 7 6 4 2 4 8 9 7 6 8 8 9 8 7 6 4 3 3 3 4 4 4
3 3 2 2 2 4 2 1 2 2 1 1 1 1 2 3 1 1 5 6 6 6 5 5 5 10 12 13 9 9 12 11 6 5 5 5 4 4 4 4 4 4 5
2 2 2 2 2 2 1 1 1 1 2 2 2 2 2 2 1 2 6 9 8 5 5 10 13 14 13 9 7 10 9 5 4 4 5 4 4 4 4 4 4 4 4
1 1 0 0 1 2 2 3 4 5 5 4 4 4 3 3 5 6 6 7 8 7 7 11 14 12 9 9 8 5 3 3 4 4 4 4 4 4 3 3 3 4 3
0 1 1 0 1 2 3 4 5 5 4 4 5 5 5 4 4 5 5 6 7 7 9 8 5 4 3 3 4 4 4 4 4 4 4 4 4 4 4 3 3 3 3
1 1 1 0 1 1 3 4 7 5 4 4 3 3 3 3 6 9 10 11 13 10 7 6 5 4 5 5 5 5 4 5 5 5 5 5 4 4 4 4 3 3 3
1 2 2 1 1 1 1 3 4 3 1 1 3 4 5 8 9 11 11 14 15 10 4 3 4 4 5 5 5 5 5 5 5 5 5 5 5 5 5 4 3 3 3
1 1 3 1 1 1 2 1 1 3 3 3 4 6 8 9 10 12 11 10 6 3 3 4 4 4 4 5 5 5 5 5 5 5 5 6 6 5 5 5 4 4 3
1 0 1 1 0 1 1 1 2 2 1 1 2 3 6 8 10 12 10 5 4 5 5 5 5 5 5 5 5 5 5 5 6 6 6 7 6 6 5 5 4 5 4
1 0 2 2 0 1 1 1 1 2 2 2 1 1 1 2 2 3 3 3 4 4 5 5 5 5 5 6 5 6 6 6 7 6 7 7 7 6 5 5 5 4 4
2 4 4 3 0 1 2 2 2 2 2 1 2 3 3 3 3 3 3 3 4 4 4 5 5 5 6 6 7 8 8 7 7 8 8 8 8 7 5 5 5 4 4
2 2 3 1 2 3 2 2 1 2 1 1 1 1 1 2 2 3 3 4 4 4 4 4 5 6 6 7 7 7 8 8 9 9 9 10 9 7 6 5 5 4 4
4 1 2 3 3 4 1 2 2 2 2 2 2 2 1 2 2 3 3 3 3 3 4 4 5 6 7 6 7 7 8 8 8 9 10 10 9 8 6 5 6 6 5
3 0 2 3 3 3 3 2 2 2 2 2 2 2 2 2 2 3 3 3 3 3 3 4 5 8 10 8 7 8 7 8 9 8 11 11 9 6 6 6 6 6 5
2 1 2 3 3 3 3 2 2 2 2 1 1 2 2 2 2 3 3 3 3 4 5 5 4 7 10 12 11 10 10 10 9 8 10 9 8 6 8 8 6 6 5
1 2 2 3 4 3 2 2 2 1 1 0 1 1 1 2 3 4 4 3 4 4 4 4 7 10 11 10 11 12 12 13 13 13 10 7 6 6 7 6 9 7 7
Wind_Direction
77 79 80 79 80 80 79 80 80 79 79 79 77 76 71 62 53 50 55 51 42 33 27 26 17 14 6 345 350 347 347 353 328 319 323 319 314 307 305 299 292 281 281
80 81 81 82 81 82 83 82 83 84 83 83 79 74 70 60 44 40 40 41 35 30 25 17 9 8 2 359 350 342 341 330 322 315 313 311 316 308 300 299 304 307 303
88 87 85 84 85 86 86 86 84 80 75 69 65 63 62 55 41 29 31 33 30 26 20 15 8 9 8 1 339 346 340 341 323 310 306 306 309 313 319 310 309 303 302
92 90 88 88 88 87 85 83 82 82 80 70 64 60 62 51 35 20 10 20 23 17 12 8 9 18 16 350 338 349 341 330 321 313 309 314 316 324 328 324 316 314 309
96 95 94 95 93 90 85 80 76 72 75 66 64 63 65 61 33 16 355 2 360 0 4 0 357 31 23 316 334 336 328 325 319 320 318 320 323 333 332 319 315 313 304
95 97 98 98 97 96 95 87 75 66 61 57 60 65 59 52 30 16 2 342 334 348 1 351 340 79 353 314 309 301 291 294 306 310 311 317 317 323 319 315 315 318 315
99 101 100 98 95 91 87 83 75 70 64 58 58 74 82 58 20 3 355 325 314 336 354 350 353 21 22 358 335 320 303 282 263 267 288 297 303 308 317 316 316 314 302
103 101 100 95 89 83 76 71 66 62 61 66 61 75 92 66 16 358 345 319 315 335 348 1 358 25 25 355 331 325 322 321 297 272 268 279 291 301 305 301 299 300 295
96 90 86 84 81 77 71 65 54 47 51 66 68 71 90 94 19 359 350 324 346 352 354 15 5 17 18 350 330 325 324 326 330 317 284 278 282 283 278 287 294 303 310
91 88 83 74 70 65 58 50 45 41 44 51 68 71 72 80 42 357 351 342 352 347 344 6 69 6 341 337 328 319 318 327 326 317 308 292 279 277 269 242 259 287 301
94 90 85 82 86 84 67 41 23 38 45 30 63 99 103 95 128 319 339 342 347 338 337 343 31 342 329 322 313 289 298 313 306 301 306 308 308 298 285 252 239 254 283
95 89 80 58 42 72 70 44 23 7 351 8 30 61 116 132 101 311 308 311 309 315 325 338 338 324 317 310 301 287 301 307 297 308 319 323 325 323 311 299 284 271 260
86 75 66 52 49 44 14 4 10 9 6 11 33 43 56 79 95 328 318 313 314 307 324 328 315 305 304 299 291 295 299 295 308 322 327 323 315 310 309 306 305 296 288
113 113 154 122 96 72 19 21 36 27 17 10 20 27 36 54 35 8 346 339 345 346 344 322 309 297 285 280 296 305 296 307 322 321 321 317 318 317 313 315 319 320 319
8 280 272 168 100 92 76 48 45 63 49 19 12 8 14 20 12 339 328 329 333 331 325 307 308 330 343 347 341 338 336 341 341 333 331 331 331 328 326 326 326 330 338
292 302 299 215 145 133 137 115 61 86 104 75 44 8 11 13 330 327 326 320 314 315 316 310 333 350 354 355 351 349 348 350 345 340 338 334 335 334 330 332 345 347 346
313 329 327 357 49 84 111 136 146 141 149 289 292 304 306 312 312 314 319 321 310 308 303 324 354 355 354 351 353 351 347 349 345 344 344 339 340 339 334 339 348 346 344
284 271 291 326 30 59 64 67 133 155 172 193 224 253 272 286 294 301 314 322 315 332 354 360 359 355 352 350 351 351 348 349 351 349 347 344 342 340 339 342 344 348 341
302 304 299 7 9 81 69 62 60 65 80 115 155 202 246 266 275 286 298 303 340 7 9 1 353 352 353 350 349 350 350 353 358 352 348 343 339 337 338 341 344 352 350
211 348 311 306 282 119 104 85 72 73 57 50 53 38 351 292 307 320 324 351 4 11 10 357 348 355 358 353 352 355 355 359 1 355 344 338 333 332 338 341 344 353 353
229 174 217 257 266 75 78 71 60 67 72 60 64 58 348 330 344 351 4 15 14 10 11 354 349 1 5 357 357 360 4 2 358 350 341 333 329 331 334 340 343 354 358
301 180 189 202 100 80 64 76 76 76 76 81 120 160 246 303 351 8 14 20 18 9 10 2 0 10 9 3 357 5 7 359 350 342 335 329 327 330 335 343 348 354 5
269 237 133 114 107 122 153 99 82 62 68 58 33 27 40 12 11 23 24 23 20 13 10 10 14 18 14 10 3 18 10 351 334 324 323 322 322 327 337 343 352 360 6
285 110 115 117 122 130 119 113 103 87 78 57 24 18 27 18 19 33 30 24 23 19 23 22 30 26 19 20 9 12 8 342 325 317 317 312 315 334 342 343 351 0 3
279 85 103 108 105 107 108 105 97 86 72 55 29 17 18 20 37 49 40 17 24 35 30 28 38 37 20 20 14 2 346 333 327 324 316 313 326 350 345 344 351 358 6
86 80 99 113 115 117 124 123 114 106 96 82 60 44 27 41 50 47 45 21 19 41 35 28 46 52 27 15 6 358 346 340 337 333 323 318 343 360 349 350 357 2 7